Vertical_Velocity
-7 -8 -8 -9 -9 -9 -9 -10 -9 -8 -7 -6 -5 -5 -5 -3 -2 -1 1 3 1 0 -0 1 2 1 -0 -2 -2 -3 -2 -0 2 3 5 6 6 6 6 6 6 5 5 3 3 2 0 -1 -0 -1 -2 -2 -1 -0 0 1 2 2 2 3 2 1 2 3 1 1 1 -2 -3
-8 -9 -9 -9 -10 -10 -9 -9 -9 -8 -7 -8 -7 -6 -6 -6 -5 -3 -0 3 3 2 0 -1 1 2 2 -0 -0 -1 -2 -2 -1 1 3 5 6 7 7 6 6 6 6 5 5 4 3 1 1 -1 -2 -2 -0 -0 -1 0 3 3 2 2 1 1 2 2 1 2 2 -0 -1
-8 -8 -9 -9 -9 -9 -9 -9 -9 -8 -7 -8 -8 -7 -7 -8 -7 -6 -4 -1 2 3 2 0 -0 1 1 1 1 0 -1 -2 -2 -1 0 2 5 7 7 6 6 6 7 7 7 6 5 4 3 0 -1 -2 -1 -2 -2 0 3 3 1 0 1 2 2 -1 0 2 3 1 0
-7 -7 -8 -8 -9 -9 -9 -8 -9 -9 -9 -8 -8 -8 -8 -7 -8 -8 -8 -6 -2 1 2 2 0 0 1 1 0 0 -0 -1 -2 -2 -1 1 4 5 6 7 7 6 6 7 7 7 7 7 5 3 1 -1 -2 -2 -2 -0 2 1 -1 -1 2 2 -0 -3 1 3 3 0 1
-7 -7 -7 -7 -8 -9 -9 -9 -9 -10 -10 -9 -8 -8 -9 -7 -7 -8 -8 -8 -6 -3 -1 1 1 1 1 2 1 0 -0 -1 -1 -2 -2 -1 2 3 5 6 6 6 6 6 6 6 6 7 6 5 3 1 -0 -2 -2 -0 0 -1 -2 1 3 0 -2 -1 1 2 1 -0 2
-8 -8 -9 -9 -8 -9 -10 -10 -9 -9 -9 -9 -8 -8 -8 -8 -7 -7 -7 -7 -7 -5 -3 -1 0 1 2 3 2 1 0 -0 -1 -1 -2 -2 -0 2 3 4 5 5 6 5 4 5 5 6 6 5 5 5 2 -0 -1 1 -1 -3 -3 1 -0 -2 -2 1 0 0 1 0 2
-8 -8 -8 -10 -9 -9 -10 -10 -10 -9 -9 -8 -7 -7 -8 -7 -6 -6 -6 -6 -6 -5 -4 -2 -1 0 1 3 3 3 2 1 1 1 -0 -2 -2 -1 0 1 3 5 5 4 4 4 4 5 5 5 5 7 4 2 1 3 -2 -3 -3 -1 -3 -2 -0 -1 -2 0 1 -1 1
-8 -8 -8 -8 -9 -9 -9 -10 -9 -9 -9 -8 -6 -6 -6 -6 -6 -6 -6 -6 -5 -5 -4 -2 -1 -0 0 1 2 3 3 3 2 2 2 1 -1 -2 -2 -1 1 2 3 4 5 3 2 3 4 4 5 8 6 5 4 5 -0 -3 -3 -3 -3 -1 -0 -4 -3 -0 1 -2 1
-8 -8 -8 -8 -9 -9 -9 -9 -8 -7 -7 -8 -6 -5 -4 -4 -4 -5 -5 -5 -5 -5 -4 -3 -2 -1 -0 -0 0 1 2 3 3 2 2 3 1 0 -1 -0 -0 -0 1 3 4 2 1 2 2 3 4 7 7 6 7 8 3 -1 -3 -3 -2 -2 -2 -5 -2 -1 -1 -2 1
-7 -8 -8 -8 -9 -8 -7 -7 -7 -6 -5 -6 -5 -4 -3 -3 -3 -4 -4 -5 -5 -5 -5 -4 -3 -2 -2 -2 -1 -1 0 1 1 1 1 1 2 1 1 1 1 1 0 1 2 1 1 1 0 1 3 6 6 6 7 10 5 1 -1 -1 -1 -2 -3 -3 -2 -2 -3 -2 -0
-7 -7 -7 -7 -8 -7 -6 -5 -5 -4 -3 -3 -3 -3 -3 -3 -3 -4 -5 -5 -5 -5 -6 -4 -3 -4 -4 -3 -2 -2 -1 -1 -1 -1 -1 -1 0 1 1 1 2 2 1 0 1 1 1 0 0 0 2 4 5 6 6 9 7 4 2 2 1 -1 -2 -2 -1 -2 -4 -4 -2
-6 -6 -6 -5 -5 -4 -3 -3 -3 -2 -2 -2 -3 -3 -3 -4 -4 -5 -5 -6 -6 -6 -6 -5 -3 -4 -6 -6 -4 -2 -2 -2 -3 -3 -3 -3 -2 -1 1 1 2 2 2 1 2 2 1 -0 0 1 1 2 4 5 6 7 7 6 4 3 2 0 -1 -1 1 -1 -4 -5 -3
-4 -4 -3 -2 -2 -1 -1 -2 -2 -2 -2 -3 -4 -4 -4 -5 -5 -5 -5 -6 -7 -7 -6 -5 -4 -4 -5 -7 -6 -4 -3 -3 -3 -4 -4 -5 -3 -2 -1 -0 1 1 2 1 2 2 1 -1 -0 0 0 0 2 4 4 5 5 5 5 5 4 2 0 1 2 0 -3 -4 -4
-1 -0 -0 1 0 0 -0 -1 -3 -3 -3 -4 -4 -4 -4 -5 -5 -4 -4 -6 -7 -7 -6 -6 -6 -5 -4 -5 -6 -6 -4 -3 -3 -4 -4 -5 -4 -3 -2 -2 -0 1 1 0 1 1 0 -2 -1 -1 -1 -1 0 2 3 4 4 4 4 5 5 3 2 3 3 1 -1 -3 -5
1 2 2 2 1 -0 -1 -2 -3 -3 -3 -4 -4 -3 -3 -4 -4 -4 -4 -5 -7 -7 -6 -6 -7 -6 -5 -3 -4 -5 -5 -4 -3 -3 -3 -4 -3 -3 -2 -2 -1 -0 0 0 0 -0 -1 -1 -2 -2 -2 -2 -1 -0 2 3 2 2 3 4 4 4 4 5 4 2 -1 -4 -5
3 2 2 2 0 -1 -2 -2 -3 -3 -3 -3 -3 -2 -2 -3 -3 -3 -3 -5 -6 -7 -6 -6 -7 -7 -6 -5 -3 -3 -4 -5 -3 -3 -2 -3 -2 -2 -2 -2 -2 -1 -1 -0 -1 -1 -1 -1 -2 -2 -3 -3 -3 -1 -0 1 1 1 2 3 3 4 4 5 4 2 -1 -3 -2
2 1 1 0 -1 -1 -2 -2 -3 -3 -3 -3 -3 -3 -2 -3 -3 -4 -4 -4 -5 -6 -7 -7 -6 -5 -6 -6 -4 -2 -3 -4 -4 -3 -2 -2 -1 -1 -2 -2 -1 -1 -1 -1 -2 -2 -2 -1 -2 -2 -3 -3 -3 -3 -2 -1 -0 0 1 1 2 3 3 4 4 3 0 -1 -1
-0 -1 -1 -1 -2 -2 -2 -2 -3 -3 -3 -3 -3 -3 -3 -3 -3 -4 -4 -3 -3 -5 -6 -7 -5 -4 -4 -6 -5 -3 -2 -4 -4 -3 -2 -2 -1 -1 -2 -2 -1 -1 -1 -2 -3 -3 -2 -2 -1 -2 -2 -3 -4 -4 -3 -2 -2 -1 -1 -0 1 1 2 3 4 3 1 0 -2
-1 -2 -2 -2 -2 -2 -2 -2 -2 -3 -3 -3 -3 -3 -3 -3 -3 -4 -4 -4 -3 -3 -5 -6 -5 -4 -4 -4 -5 -4 -4 -3 -4 -4 -4 -2 -2 -2 -2 -2 -2 -2 -2 -3 -3 -3 -3 -2 -1 -1 -1 -3 -3 -4 -3 -3 -3 -3 -3 -2 -1 -0 1 2 2 2 1 0 -2
-2 -2 -3 -2 -2 -2 -2 -2 -2 -2 -3 -3 -2 -3 -3 -3 -2 -3 -3 -4 -3 -3 -3 -5 -5 -4 -4 -4 -4 -5 -4 -3 -4 -5 -5 -3 -3 -3 -3 -2 -3 -3 -3 -3 -3 -3 -3 -2 -2 -1 -1 -2 -3 -3 -3 -3 -3 -4 -4 -3 -3 -2 -0 1 1 1 1 0 -1
-2 -2 -2 -2 -2 -2 -2 -2 -2 -2 -2 -3 -2 -2 -2 -2 -2 -2 -3 -3 -3 -3 -3 -3 -4 -4 -4 -4 -4 -4 -5 -4 -4 -5 -5 -4 -4 -4 -3 -2 -4 -4 -3 -3 -3 -3 -3 -2 -2 -1 -1 -1 -2 -3 -3 -3 -3 -4 -5 -5 -4 -3 -1 0 0 0 -0 -1 -1
-2 -1 -1 -1 -1 -1 -1 -1 -1 -2 -2 -2 -2 -2 -2 -2 -2 -2 -2 -2 -2 -2 -2 -3 -3 -3 -3 -4 -4 -5 -5 -4 -4 -4 -4 -4 -5 -4 -3 -3 -4 -5 -4 -3 -3 -2 -2 -2 -2 -2 -1 -2 -3 -3 -2 -2 -3 -4 -5 -5 -5 -4 -2 -0 -0 -1 -2 -2 -2
-1 -1 -1 -0 -0 -1 -1 -1 -2 -2 -2 -2 -2 -2 -2 -2 -2 -2 -2 -2 -2 -2 -2 -2 -2 -3 -3 -4 -4 -5 -5 -5 -5 -4 -3 -3 -4 -4 -4 -3 -4 -5 -5 -3 -2 -1 -1 -2 -2 -1 -1 -2 -3 -3 -2 -2 -3 -4 -4 -5 -5 -4 -3 -1 -1 -1 -2 -3 -2
-1 -1 -1 -1 -1 -1 -1 -1 -2 -2 -2 -2 -2 -2 -2 -2 -2 -2 -1 -1 -1 -1 -1 -2 -2 -2 -3 -4 -4 -4 -5 -5 -5 -4 -3 -2 -3 -3 -4 -3 -4 -4 -4 -3 -1 -1 -1 -1 -2 -2 -1 -2 -3 -3 -3 -2 -3 -3 -4 -4 -5 -5 -4 -3 -2 -1 -2 -3 -3
-1 -1 -2 -1 -1 -1 -1 -1 -2 -2 -2 -2 -2 -2 -2 -2 -1 -1 -1 -1 -1 -1 -1 -2 -3 -3 -3 -4 -3 -3 -3 -3 -4 -5 -4 -3 -2 -2 -2 -3 -3 -4 -3 -2 -1 -0 0 -0 -1 -2 -2 -2 -2 -3 -3 -3 -3 -3 -3 -4 -4 -5 -5 -4 -3 -2 -2 -3 -3
-2 -2 -2 -2 -1 -1 -1 -1 -2 -2 -2 -2 -2 -2 -1 -1 -1 -1 -1 -1 -1 -1 -2 -2 -3 -3 -3 -3 -3 -2 -2 -2 -3 -4 -4 -3 -2 -1 -0 -1 -2 -3 -2 -1 -0 0 0 -0 -1 -1 -2 -2 -2 -3 -3 -3 -2 -2 -2 -3 -4 -5 -5 -5 -3 -3 -2 -2 -2
-3 -3 -3 -2 -1 -1 -1 -1 -2 -2 -2 -1 -1 -1 -1 -1 -0 -1 -1 -1 -2 -2 -2 -3 -3 -4 -4 -3 -2 -1 -1 -1 -1 -2 -2 -2 -2 -1 0 0 -1 -1 -1 -0 -0 -0 -0 -0 -0 -1 -2 -3 -3 -3 -3 -3 -2 -2 -2 -3 -4 -4 -4 -5 -4 -3 -2 -1 -1
-4 -4 -3 -2 -1 -1 -1 -1 -1 -1 -1 -1 -0 -0 -0 -0 -0 -1 -1 -2 -3 -3 -3 -4 -3 -3 -3 -2 -1 -0 0 0 0 -0 -1 -1 -1 -0 0 1 0 0 0 1 0 -0 -0 -0 -0 -1 -1 -3 -4 -4 -4 -3 -3 -2 -2 -3 -3 -3 -3 -4 -3 -1 -0 -1 -1
-4 -4 -3 -2 -2 -1 -0 -0 -1 -1 -0 -0 -0 0 -0 -0 -1 -1 -2 -3 -3 -4 -4 -4 -4 -3 -2 -1 -1 0 1 2 1 0 -1 -1 -0 0 1 1 0 1 1 2 1 -0 -1 -1 -1 -1 -1 -2 -4 -5 -5 -5 -4 -3 -3 -3 -2 -2 -2 -2 -1 -0 -0 -1 -1
-4 -3 -3 -2 -2 -1 -0 0 -0 -0 -0 -0 -0 -0 -1 -1 -2 -2 -3 -4 -4 -4 -3 -4 -4 -2 -1 -0 -0 0 1 2 2 1 -0 -1 -0 1 1 1 1 1 2 2 1 -0 -1 -1 -1 -2 -2 -2 -4 -6 -7 -6 -5 -4 -3 -3 -2 -2 -2 -1 -0 -0 -1 -1 0
-3 -3 -3 -2 -1 -1 -0 -0 0 0 -0 -0 -0 -1 -1 -2 -2 -3 -3 -4 -5 -4 -3 -2 -2 -2 -1 0 -0 -0 -0 1 1 1 -0 -1 -1 0 1 2 2 2 2 2 0 -1 -1 -1 -1 -2 -2 -2 -4 -5 -7 -6 -6 -5 -4 -3 -2 -2 -1 -1 -1 -1 -0 0 1
-3 -2 -2 -2 -1 -1 -0 -0 -0 -0 -0 -0 -0 -1 -2 -2 -3 -3 -4 -5 -5 -5 -3 -1 -1 -1 -0 0 -0 -0 -1 -0 0 0 0 -1 -1 0 2 3 3 3 3 2 1 -0 -0 -1 -1 -1 -1 -1 -3 -4 -5 -6 -5 -5 -4 -3 -2 -1 -1 -0 -1 -0 0 1 1
-3 -2 -2 -2 -1 -1 -0 -0 -0 -0 -0 0 0 -1 -2 -3 -3 -3 -3 -4 -5 -4 -3 -1 -1 -1 -0 -0 -0 -0 -0 0 -0 -0 -1 -1 -2 -1 1 3 5 5 5 4 3 2 2 1 1 0 -0 -1 -2 -3 -4 -4 -3 -3 -2 -2 -0 0 1 0 -0 0 1 2 1
-2 -2 -2 -1 -1 -1 -1 -0 -0 -0 0 0 0 -0 -1 -3 -4 -4 -4 -3 -3 -3 -2 -1 -1 -1 -2 -1 -2 -1 -1 0 0 -1 -2 -3 -4 -3 -2 1 4 5 6 6 6 5 5 4 3 2 1 -0 -1 -2 -2 -2 -1 -1 0 1 2 3 2 2 2 2 2 2 2
-2 -3 -3 -2 -1 -1 -1 -0 0 0 0 0 -0 -0 -1 -2 -4 -4 -4 -4 -2 -1 -1 -0 -1 -2 -3 -3 -2 -2 -1 -0 0 -0 -1 -3 -4 -5 -3 -0 3 5 6 6 6 6 6 5 4 3 2 0 -1 -1 -1 0 1 1 2 3 4 4 4 4 3 3 3 3 2
-3 -3 -3 -3 -1 -1 -0 -0 0 0 0 0 -1 -1 -2 -2 -2 -3 -4 -4 -2 -1 -0 -0 -1 -2 -2 -2 -2 -1 -1 -1 -1 -1 -1 -2 -3 -4 -3 -0 4 7 9 10 8 6 4 3 2 2 1 -0 -2 -1 0 1 2 3 3 4 4 5 5 5 4 3 3 3 2
-3 -3 -3 -3 -2 -1 -0 0 0 0 -0 -0 -1 -1 -2 -2 -2 -2 -2 -3 -3 -2 -1 0 -0 -1 -2 -2 -1 -0 -0 -1 -1 -1 -1 -1 -1 -2 -2 0 5 9 12 12 9 5 2 -0 -1 -1 -1 -2 -3 -2 -0 1 2 3 4 4 5 5 5 4 3 2 2 2 2
-2 -3 -3 -3 -2 -1 -0 0 0 -0 -1 -1 -1 -1 -2 -2 -2 -1 -1 -2 -3 -3 -2 0 0 -0 -1 -2 -1 0 1 2 0 -0 0 1 1 0 -0 0 3 7 9 8 5 2 -0 -1 -1 -2 -2 -3 -3 -2 -0 1 2 3 4 4 4 4 4 3 2 1 1 2 2
-2 -3 -3 -3 -2 -2 -1 -0 -0 -1 -2 -2 -2 -1 -2 -2 -1 -1 -1 -2 -4 -4 -2 0 1 1 -0 -1 -1 1 3 5 5 4 4 3 3 2 0 -1 1 2 3 1 -1 -2 -2 -1 -1 -1 -1 -2 -2 -1 0 1 1 2 3 3 3 3 2 2 1 1 1 2 2
-3 -3 -2 -2 -2 -2 -1 -1 -0 -1 -2 -3 -3 -2 -2 -1 -1 -1 -1 -3 -4 -3 -2 1 2 2 0 -1 -1 1 4 7 9 9 7 5 3 2 1 -0 0 0 -0 -2 -3 -3 -3 -2 -1 -1 -1 -2 -1 -0 1 1 1 1 1 2 2 2 1 1 0 0 1 1 1
-3 -3 -3 -2 -2 -2 -2 -2 -1 -1 -1 -2 -3 -3 -2 -1 -0 -1 -2 -3 -3 -3 -1 1 2 2 1 -1 -1 -0 2 6 8 9 8 6 4 3 2 0 0 -0 -1 -2 -3 -3 -3 -2 -1 -1 -1 -1 -1 0 1 1 1 1 1 1 0 0 1 1 0 0 0 1 0
Height
5583 5581 5579 5577 5575 5574 5572 5570 5569 5567 5566 5564 5563 5561 5560 5558 5556 5554 5551 5549 5546 5544 5543 5542 5541 5539 5538 5538 5537 5536 5534 5534 5533 5532 5531 5530 5530 5530 5530 5530 5530 5529 5529 5529 5529 5529 5530 5530 5531 5532 5533 5535 5536 5538 5539 5541 5542 5543 5545 5546 5548 5549 5551 5553 5555 5557 5559 5561 5563
5577 5575 5573 5571 5569 5567 5565 5563 5561 5560 5558 5556 5555 5553 5552 5550 5549 5547 5545 5543 5540 5538 5536 5535 5534 5533 5532 5531 5530 5529 5528 5527 5526 5525 5524 5524 5523 5523 5523 5523 5523 5523 5523 5523 5523 5523 5523 5523 5524 5525 5526 5527 5528 5530 5532 5533 5534 5536 5537 5539 5540 5542 5544 5546 5548 5550 5552 5554 5556
5572 5569 5567 5564 5562 5560 5558 5556 5554 5552 5550 5548 5547 5545 5543 5542 5541 5539 5538 5536 5534 5532 5530 5528 5527 5526 5525 5524 5523 5522 5521 5520 5519 5518 5518 5517 5517 5516 5516 5516 5516 5516 5516 5516 5517 5517 5517 5517 5517 5518 5518 5519 5521 5523 5524 5525 5526 5528 5529 5531 5532 5534 5537 5539 5541 5543 5545 5548 5549
5566 5563 5561 5558 5556 5553 5551 5548 5546 5544 5542 5540 5538 5537 5535 5533 5532 5531 5529 5528 5527 5525 5523 5521 5520 5518 5518 5517 5516 5515 5514 5513 5513 5512 5511 5510 5510 5509 5508 5508 5508 5508 5508 5509 5509 5509 5510 5510 5511 5511 5511 5512 5513 5515 5516 5517 5518 5520 5521 5523 5524 5527 5529 5531 5533 5536 5538 5541 5543
5559 5557 5554 5552 5549 5546 5543 5541 5538 5536 5534 5532 5530 5528 5527 5525 5523 5522 5521 5520 5519 5518 5516 5514 5513 5512 5511 5509 5508 5508 5507 5506 5505 5504 5504 5503 5503 5502 5501 5500 5500 5500 5500 5501 5501 5502 5502 5503 5503 5504 5504 5505 5506 5507 5508 5509 5511 5512 5513 5514 5517 5519 5521 5523 5526 5528 5531 5533 5535
5553 5550 5548 5545 5542 5539 5536 5534 5531 5528 5526 5524 5522 5520 5518 5517 5515 5514 5513 5511 5510 5509 5508 5507 5505 5504 5503 5502 5501 5500 5499 5498 5498 5497 5496 5495 5495 5494 5493 5493 5492 5492 5492 5492 5493 5493 5494 5495 5496 5497 5498 5498 5499 5500 5501 5501 5503 5504 5506 5507 5509 5511 5513 5516 5518 5521 5523 5526 5528
5546 5543 5541 5538 5535 5532 5529 5526 5524 5521 5519 5517 5514 5512 5510 5509 5507 5505 5504 5503 5502 5501 5500 5498 5498 5496 5495 5494 5493 5493 5492 5491 5490 5489 5488 5488 5487 5486 5486 5485 5484 5484 5484 5484 5484 5485 5485 5487 5488 5489 5490 5491 5492 5493 5493 5494 5495 5496 5498 5499 5501 5503 5505 5508 5510 5513 5516 5518 5521
5539 5536 5533 5530 5528 5525 5522 5519 5517 5514 5512 5509 5507 5505 5503 5501 5499 5498 5496 5495 5493 5492 5491 5490 5489 5488 5487 5486 5485 5484 5484 5483 5482 5481 5480 5480 5479 5478 5478 5477 5476 5476 5476 5476 5476 5476 5477 5478 5479 5481 5482 5483 5485 5486 5486 5487 5487 5488 5490 5492 5493 5496 5498 5500 5502 5505 5508 5511 5513
5532 5529 5526 5523 5520 5518 5515 5512 5509 5507 5505 5502 5500 5498 5496 5494 5492 5490 5488 5487 5485 5484 5483 5481 5480 5479 5478 5477 5476 5475 5475 5474 5473 5472 5472 5471 5471 5470 5470 5469 5468 5468 5468 5467 5467 5468 5468 5468 5470 5472 5473 5475 5477 5478 5479 5479 5480 5481 5482 5484 5486 5488 5490 5492 5494 5497 5500 5503 5505
5525 5522 5519 5516 5513 5510 5508 5505 5503 5500 5498 5495 5493 5491 5489 5487 5484 5483 5480 5478 5477 5476 5474 5473 5471 5470 5468 5467 5466 5466 5465 5464 5463 5463 5462 5462 5462 5461 5461 5461 5461 5460 5459 5459 5459 5459 5459 5460 5461 5463 5465 5466 5468 5469 5471 5472 5473 5473 5474 5476 5478 5481 5483 5485 5487 5489 5491 5494 5497
5518 5515 5512 5509 5506 5503 5501 5498 5496 5493 5491 5488 5486 5484 5482 5479 5477 5475 5473 5471 5469 5467 5466 5464 5463 5460 5458 5457 5456 5455 5455 5454 5453 5453 5452 5452 5452 5452 5452 5452 5452 5452 5451 5451 5451 5450 5450 5451 5452 5454 5455 5457 5459 5461 5462 5463 5464 5465 5466 5468 5470 5473 5475 5477 5479 5481 5483 5486 5489
5512 5509 5506 5503 5500 5497 5494 5491 5489 5487 5484 5482 5479 5477 5474 5472 5469 5467 5464 5462 5460 5458 5457 5455 5453 5451 5449 5448 5446 5445 5444 5443 5442 5442 5442 5441 5442 5442 5442 5442 5442 5442 5442 5442 5442 5442 5441 5442 5443 5444 5446 5448 5449 5451 5453 5454 5456 5457 5458 5460 5462 5465 5468 5469 5471 5473 5475 5477 5480
5506 5503 5499 5496 5493 5490 5487 5484 5482 5479 5477 5474 5472 5469 5467 5464 5461 5459 5456 5453 5451 5449 5448 5446 5444 5442 5440 5438 5437 5435 5433 5432 5431 5431 5431 5431 5431 5431 5431 5431 5432 5432 5432 5432 5432 5432 5432 5433 5433 5434 5436 5438 5440 5441 5443 5445 5447 5448 5450 5452 5454 5457 5459 5461 5463 5465 5467 5469 5472
5500 5497 5493 5490 5487 5483 5480 5478 5474 5472 5469 5467 5464 5462 5459 5456 5453 5451 5448 5445 5443 5441 5438 5436 5434 5433 5431 5429 5427 5425 5423 5422 5421 5420 5420 5420 5420 5420 5420 5420 5421 5421 5421 5422 5422 5422 5423 5423 5423 5424 5426 5428 5429 5431 5433 5435 5437 5439 5441 5443 5445 5448 5450 5453 5454 5457 5459 5461 5464
5494 5491 5487 5484 5480 5477 5474 5471 5468 5465 5462 5459 5457 5454 5451 5448 5445 5443 5440 5437 5434 5432 5429 5427 5425 5423 5421 5419 5417 5416 5414 5412 5411 5410 5409 5409 5409 5409 5409 5409 5410 5410 5410 5411 5411 5412 5412 5413 5413 5414 5416 5417 5419 5421 5423 5425 5427 5429 5432 5434 5437 5439 5441 5443 5446 5448 5451 5453 5456
5488 5484 5481 5477 5474 5470 5467 5464 5461 5458 5455 5452 5449 5446 5443 5440 5437 5434 5431 5428 5425 5423 5420 5418 5416 5414 5412 5410 5408 5407 5405 5403 5402 5400 5399 5399 5399 5399 5399 5399 5399 5399 5400 5400 5400 5401 5402 5403 5403 5404 5405 5407 5408 5411 5413 5415 5417 5419 5422 5424 5427 5430 5432 5435 5437 5439 5442 5445 5448
5482 5478 5474 5471 5467 5464 5461 5458 5454 5451 5448 5445 5442 5438 5435 5432 5428 5425 5422 5419 5416 5413 5411 5409 5407 5405 5403 5402 5400 5398 5396 5394 5393 5392 5391 5390 5389 5389 5389 5389 5389 5389 5389 5389 5390 5390 5391 5392 5393 5394 5395 5396 5398 5400 5402 5404 5407 5409 5412 5414 5417 5420 5423 5425 5428 5430 5433 5436 5439
5475 5471 5468 5464 5461 5458 5454 5451 5447 5444 5440 5437 5433 5430 5427 5423 5420 5417 5414 5411 5408 5405 5403 5401 5399 5397 5395 5393 5392 5390 5388 5387 5385 5384 5383 5382 5381 5380 5380 5380 5380 5380 5380 5379 5380 5380 5381 5382 5383 5384 5385 5386 5388 5390 5392 5394 5396 5399 5401 5404 5407 5410 5413 5416 5419 5421 5424 5427 5430
5468 5465 5461 5458 5454 5451 5448 5444 5440 5437 5433 5429 5426 5422 5419 5415 5412 5409 5406 5403 5401 5398 5395 5393 5392 5390 5388 5387 5385 5383 5382 5380 5378 5377 5376 5375 5374 5373 5372 5371 5371 5371 5371 5370 5370 5371 5372 5373 5373 5374 5375 5377 5378 5380 5382 5384 5386 5388 5391 5394 5397 5400 5403 5407 5409 5412 5415 5418 5422
5462 5459 5455 5452 5448 5444 5441 5437 5433 5429 5425 5422 5418 5414 5411 5408 5405 5402 5399 5396 5394 5392 5389 5387 5385 5383 5382 5380 5378 5377 5375 5373 5372 5370 5368 5368 5367 5366 5365 5364 5363 5363 5362 5362 5362 5362 5363 5363 5364 5365 5366 5367 5368 5370 5372 5374 5376 5378 5380 5383 5387 5390 5394 5397 5400 5403 5406 5409 5413
5456 5453 5449 5445 5442 5438 5434 5430 5426 5422 5418 5414 5411 5407 5404 5401 5398 5395 5393 5390 5388 5386 5383 5381 5379 5377 5376 5374 5372 5370 5369 5367 5366 5364 5362 5361 5360 5359 5358 5357 5356 5355 5355 5355 5355 5355 5355 5355 5356 5357 5357 5358 5359 5360 5362 5364 5366 5368 5370 5373 5376 5380 5384 5387 5390 5393 5397 5400 5404
5450 5447 5443 5439 5435 5431 5427 5423 5419 5415 5411 5407 5404 5400 5398 5395 5392 5390 5387 5385 5383 5380 5378 5376 5374 5372 5370 5368 5366 5364 5363 5361 5360 5358 5356 5355 5354 5353 5352 5350 5349 5348 5348 5348 5348 5348 5348 5348 5348 5348 5349 5349 5350 5351 5353 5354 5356 5358 5360 5363 5366 5370 5374 5378 5381 5384 5387 5391 5395
5445 5441 5437 5433 5429 5425 5420 5416 5412 5408 5404 5401 5397 5394 5392 5389 5387 5384 5382 5380 5378 5375 5373 5371 5368 5366 5364 5362 5360 5358 5357 5355 5354 5353 5351 5349 5348 5347 5345 5344 5343 5342 5342 5341 5341 5341 5341 5341 5341 5341 5341 5341 5341 5342 5344 5345 5347 5348 5351 5353 5357 5360 5364 5368 5371 5374 5378 5382 5386
5439 5435 5431 5427 5423 5418 5414 5409 5405 5402 5398 5395 5392 5389 5386 5384 5382 5379 5377 5375 5373 5371 5368 5366 5363 5361 5359 5357 5355 5353 5352 5350 5348 5347 5346 5344 5343 5341 5340 5339 5338 5337 5336 5336 5335 5335 5335 5334 5334 5333 5333 5333 5333 5334 5335 5337 5338 5340 5342 5344 5347 5350 5354 5358 5361 5365 5368 5373 5377
5433 5429 5424 5420 5416 5412 5407 5403 5399 5395 5392 5389 5387 5384 5382 5379 5377 5375 5373 5370 5368 5366 5363 5361 5358 5356 5354 5353 5351 5349 5347 5345 5343 5342 5341 5339 5338 5337 5335 5334 5333 5331 5330 5330 5330 5329 5329 5328 5327 5327 5327 5327 5326 5327 5328 5328 5330 5332 5333 5336 5338 5341 5344 5348 5352 5356 5360 5364 5368
5427 5423 5418 5414 5410 5405 5401 5397 5393 5390 5387 5384 5382 5379 5377 5375 5373 5370 5368 5365 5363 5361 5359 5356 5354 5352 5350 5348 5346 5345 5343 5341 5339 5337 5336 5334 5333 5332 5331 5329 5328 5327 5326 5325 5325 5324 5323 5322 5322 5321 5320 5320 5320 5320 5321 5321 5323 5324 5326 5328 5330 5333 5336 5339 5343 5347 5351 5355 5359
5420 5416 5412 5408 5403 5399 5396 5392 5388 5385 5383 5380 5378 5375 5373 5370 5368 5366 5363 5361 5358 5356 5354 5352 5350 5348 5346 5344 5343 5341 5339 5337 5335 5333 5332 5330 5329 5328 5327 5325 5324 5323 5322 5321 5320 5319 5318 5317 5317 5316 5315 5314 5313 5314 5314 5315 5316 5317 5318 5320 5322 5325 5328 5331 5335 5339 5343 5346 5350
5414 5410 5406 5402 5398 5394 5390 5387 5384 5381 5378 5376 5373 5371 5369 5366 5364 5361 5359 5357 5354 5352 5350 5348 5347 5344 5343 5341 5339 5337 5335 5334 5332 5330 5328 5327 5325 5324 5323 5322 5320 5319 5318 5317 5316 5315 5314 5313 5312 5311 5310 5309 5308 5308 5308 5308 5309 5310 5312 5313 5315 5317 5320 5323 5327 5331 5334 5338 5342
5408 5404 5400 5396 5393 5389 5386 5383 5380 5377 5374 5372 5369 5367 5364 5362 5360 5357 5355 5353 5351 5349 5347 5345 5343 5341 5339 5338 5336 5334 5332 5331 5329 5327 5325 5324 5323 5321 5320 5318 5317 5316 5315 5314 5313 5311 5310 5309 5308 5307 5306 5304 5303 5303 5303 5303 5304 5305 5306 5307 5308 5311 5313 5316 5319 5323 5327 5330 5333
5402 5398 5394 5391 5388 5384 5382 5378 5376 5373 5371 5368 5365 5363 5360 5358 5356 5353 5351 5349 5348 5346 5343 5342 5340 5338 5337 5335 5333 5331 5329 5328 5326 5325 5323 5322 5320 5319 5318 5316 5315 5313 5313 5311 5310 5308 5307 5306 5304 5303 5302 5301 5299 5298 5298 5298 5299 5300 5301 5302 5303 5305 5307 5310 5313 5315 5318 5322 5325
5397 5393 5389 5386 5383 5380 5378 5375 5372 5369 5367 5364 5362 5359 5357 5354 5352 5350 5348 5346 5344 5343 5341 5339 5337 5335 5334 5332 5330 5329 5327 5325 5324 5323 5321 5319 5318 5317 5315 5314 5313 5312 5310 5309 5308 5306 5304 5303 5302 5300 5299 5297 5296 5295 5294 5294 5294 5295 5296 5297 5298 5300 5302 5304 5306 5308 5311 5314 5318
5391 5388 5384 5381 5378 5376 5373 5371 5368 5366 5363 5360 5358 5355 5353 5351 5349 5347 5345 5343 5341 5339 5338 5337 5335 5333 5332 5330 5328 5327 5325 5323 5322 5320 5319 5317 5316 5314 5313 5312 5311 5309 5308 5307 5305 5304 5303 5301 5299 5298 5296 5295 5293 5292 5291 5290 5290 5291 5292 5293 5294 5295 5297 5298 5300 5302 5305 5308 5310
5386 5383 5380 5377 5374 5372 5370 5367 5365 5362 5359 5357 5355 5353 5350 5348 5347 5345 5343 5341 5339 5337 5336 5334 5333 5331 5329 5328 5326 5325 5323 5322 5320 5318 5317 5316 5314 5313 5311 5310 5309 5308 5306 5305 5303 5302 5301 5299 5298 5296 5294 5293 5291 5289 5288 5288 5287 5287 5288 5288 5289 5291 5292 5293 5295 5297 5299 5302 5304
5382 5379 5376 5373 5371 5368 5366 5364 5361 5359 5356 5354 5352 5350 5348 5346 5344 5342 5340 5338 5337 5335 5333 5332 5330 5329 5327 5326 5324 5323 5322 5320 5318 5317 5315 5314 5312 5311 5309 5308 5307 5305 5304 5303 5301 5300 5299 5298 5296 5294 5293 5291 5289 5288 5286 5285 5285 5284 5284 5285 5285 5286 5287 5288 5290 5292 5294 5296 5298
5378 5374 5372 5370 5368 5365 5363 5360 5358 5355 5353 5351 5349 5347 5345 5343 5342 5340 5338 5336 5334 5333 5332 5330 5328 5327 5325 5324 5323 5321 5320 5318 5317 5315 5314 5312 5311 5309 5308 5306 5305 5303 5302 5301 5299 5298 5297 5296 5294 5293 5291 5290 5288 5286 5285 5284 5283 5282 5282 5282 5282 5283 5283 5284 5285 5287 5289 5291 5293
5373 5371 5368 5366 5364 5362 5360 5357 5355 5352 5350 5348 5346 5344 5343 5341 5339 5338 5336 5334 5332 5331 5330 5328 5327 5325 5324 5323 5321 5320 5318 5317 5315 5314 5312 5311 5309 5307 5306 5304 5303 5302 5300 5299 5297 5296 5295 5293 5292 5291 5290 5288 5287 5285 5284 5283 5282 5281 5281 5280 5280 5280 5280 5281 5282 5283 5284 5286 5288
5370 5367 5365 5363 5361 5359 5356 5354 5352 5349 5347 5345 5344 5342 5340 5339 5337 5336 5334 5332 5330 5329 5328 5327 5325 5324 5322 5321 5319 5318 5317 5315 5313 5312 5310 5309 5307 5305 5303 5302 5301 5300 5298 5297 5295 5293 5292 5291 5290 5289 5288 5287 5285 5284 5283 5282 5281 5280 5280 5279 5279 5279 5279 5278 5279 5279 5281 5282 5284
5366 5364 5362 5360 5358 5356 5353 5351 5349 5347 5345 5343 5342 5340 5338 5337 5335 5333 5332 5330 5328 5327 5326 5325 5324 5322 5321 5319 5318 5316 5315 5313 5311 5310 5308 5307 5305 5303 5302 5300 5299 5298 5297 5295 5293 5292 5290 5289 5288 5287 5286 5285 5284 5283 5282 5281 5280 5280 5279 5279 5278 5278 5278 5278 5278 5278 5278 5279 5281
5363 5361 5359 5357 5355 5353 5350 5348 5346 5344 5342 5341 5339 5338 5336 5335 5333 5332 5330 5328 5327 5325 5324 5323 5322 5321 5319 5318 5316 5314 5313 5312 5310 5308 5307 5305 5303 5302 5300 5298 5297 5296 5294 5293 5291 5290 5288 5288 5287 5286 5285 5284 5283 5282 5281 5280 5280 5279 5279 5278 5278 5278 5278 5277 5277 5277 5278 5278 5279
5360 5358 5356 5354 5352 5350 5348 5345 5343 5342 5340 5338 5337 5335 5334 5333 5331 5330 5328 5327 5325 5324 5323 5322 5320 5319 5318 5316 5314 5313 5312 5310 5309 5307 5305 5303 5302 5300 5298 5296 5295 5293 5292 5291 5289 5288 5287 5286 5285 5284 5283 5283 5282 5281 5281 5280 5279 5279 5278 5278 5278 5278 5277 5277 5277 5277 5278 5278 5278
5358 5356 5353 5352 5349 5347 5345 5343 5341 5340 5338 5337 5335 5333 5332 5330 5329 5328 5327 5325 5324 5323 5321 5320 5319 5317 5316 5314 5313 5311 5310 5309 5308 5306 5304 5302 5300 5298 5296 5294 5293 5292 5290 5289 5288 5287 5286 5285 5284 5283 5283 5282 5281 5281 5280 5280 5279 5278 5278 5278 5278 5277 5277 5277 5277 5277 5278 5278 5278